2021-006EL (47685 NORAD) Tracking and Keplerian Element Data

This shows tracking and keplerian element data for the satellite.

Feedback or suggestion? Click here.




ElementValue
Catalog47685
Name2021-006EL
Epoch Orbit473
Epoch Day53.91950011
Epoch Year2021
RAAN117.1055
Inclination97.5064
Eccentricity0.0008276
Argument of Perigee141.1591
Mean Anonmoly219.0235
Mean Motion15.11453856
Decay Rate9.23E-06
L11 47685U 21006EL 21053.91950011 .00000923 00000-0 58302-4 0 9992
L22 47685 97.5064 117.1055 0008276 141.1591 219.0235 15.11453856 4733

Live tracking and technical data element details for 2021-006EL (NORAD 47685). 2021-006EL can be tracked NOW for your location showing map with azimuth and elevation plus other details from your city location.

Track the satellite on the map from your city or location and see movement details for azimuth, elevation, latitude, longitude, range, height, and movement on the map or in text.







IsCatalogInMostPopularTable: catalog: 47685, numindb: 5
Update: records affected: 1



GetName: 47685 2021-006EL

Hit Count: updated at: Mon, 01 Mar 2021 15:34:43 GMT